Time,TemperatureF,DewpointF,PressureIn,WindDirection,WindDirectionDegrees,WindSpeedMPH,WindSpeedGustMPH,Humidity,HourlyPrecipIn,Conditions,Clouds,dailyrainin,SoftwareType,DateUTC
2013-01-06 00:00:00,22.2,20.2,29.89,SSE,165,0.0,2.0,92,0.00,,---,0.00,VWS V14.00,2013-01-06 06:00:00,
2013-01-06 00:05:00,22.4,20.4,29.89,SSE,165,0.0,0.0,92,0.00,,---,0.00,VWS V14.00,2013-01-06 06:05:00,
2013-01-06 00:10:00,22.6,20.6,29.89,SSE,167,0.0,3.0,92,0.00,,---,0.00,VWS V14.00,2013-01-06 06:10:00,
2013-01-06 00:15:00,22.7,20.5,29.89,SSE,167,0.0,3.0,91,0.00,,---,0.00,VWS V14.00,2013-01-06 06:15:00,
2013-01-06 00:20:00,22.8,20.6,29.89,SSE,167,0.0,0.0,91,0.00,,---,0.00,VWS V14.00,2013-01-06 06:20:00,
2013-01-06 00:25:00,22.9,20.7,29.89,SSE,167,0.0,0.0,91,0.00,,---,0.00,VWS V14.00,2013-01-06 06:25:00,
2013-01-06 00:30:00,23.0,20.8,29.89,SSE,167,0.0,2.0,91,0.00,,---,0.00,VWS V14.00,2013-01-06 06:30:00,
2013-01-06 00:35:00,23.1,20.9,29.89,WNW,300,0.0,2.0,91,0.00,,---,0.00,VWS V14.00,2013-01-06 06:35:00,
2013-01-06 00:40:00,23.3,21.3,29.89,West,265,0.0,2.0,92,0.00,,---,0.00,VWS V14.00,2013-01-06 06:40:00,
2013-01-06 00:45:00,23.4,21.4,29.89,West,265,0.0,2.0,92,0.00,,---,0.00,VWS V14.00,2013-01-06 06:45:00,
2013-01-06 00:50:00,23.5,21.5,29.89,West,265,0.0,0.0,92,0.00,,---,0.00,VWS V14.00,2013-01-06 06:50:00,
2013-01-06 00:55:00,23.7,21.7,29.89,West,265,0.0,2.0,92,0.00,,---,0.00,VWS V14.00,2013-01-06 06:55:00,
2013-01-06 01:00:00,23.9,22.2,29.89,West,261,0.0,2.0,93,0.00,,---,0.00,VWS V14.00,2013-01-06 07:00:00,
2013-01-06 01:05:00,24.2,22.5,29.89,West,261,0.0,5.0,93,0.00,,---,0.00,VWS V14.00,2013-01-06 07:05:00,
2013-01-06 01:10:00,24.4,22.7,29.89,West,278,0.0,5.0,93,0.00,,---,0.00,VWS V14.00,2013-01-06 07:10:00,
2013-01-06 01:15:00,24.6,22.9,29.89,SW,218,0.0,5.0,93,0.00,,---,0.00,VWS V14.00,2013-01-06 07:15:00,
2013-01-06 01:20:00,24.8,23.1,29.89,SW,226,1.0,3.0,93,0.00,,---,0.00,VWS V14.00,2013-01-06 07:20:00,
2013-01-06 01:25:00,25.0,23.3,29.90,ESE,111,0.0,3.0,93,0.00,,---,0.00,VWS V14.00,2013-01-06 07:25:00,
2013-01-06 01:30:00,25.1,23.4,29.90,West,280,2.0,4.0,93,0.00,,---,0.00,VWS V14.00,2013-01-06 07:30:00,
2013-01-06 01:35:00,25.3,23.6,29.90,West,263,1.0,3.0,93,0.00,,---,0.00,VWS V14.00,2013-01-06 07:35:00,
2013-01-06 01:40:00,25.4,23.7,29.90,WSW,255,0.0,6.0,93,0.00,,---,0.00,VWS V14.00,2013-01-06 07:40:00,
2013-01-06 01:45:00,25.4,23.7,29.90,SSW,210,9.0,10.0,93,0.00,,---,0.00,VWS V14.00,2013-01-06 07:45:00,
2013-01-06 01:50:00,25.5,23.8,29.90,WNW,291,0.0,3.0,93,0.00,,---,0.00,VWS V14.00,2013-01-06 07:50:00,
2013-01-06 01:55:00,25.5,23.5,29.91,South,191,3.0,6.0,92,0.00,,---,0.00,VWS V14.00,2013-01-06 07:55:00,
2013-01-06 02:00:00,25.6,23.6,29.91,SW,227,1.0,6.0,92,0.00,,---,0.00,VWS V14.00,2013-01-06 08:00:00,
2013-01-06 02:05:00,25.6,23.6,29.91,West,278,1.0,4.0,92,0.00,,---,0.00,VWS V14.00,2013-01-06 08:05:00,
2013-01-06 02:10:00,25.6,23.3,29.91,WSW,247,3.0,8.0,91,0.00,,---,0.00,VWS V14.00,2013-01-06 08:10:00,
2013-01-06 02:15:00,25.7,23.4,29.91,WNW,284,0.0,8.0,91,0.00,,---,0.00,VWS V14.00,2013-01-06 08:15:00,
2013-01-06 02:20:00,25.7,23.4,29.91,ESE,116,2.0,5.0,91,0.00,,---,0.00,VWS V14.00,2013-01-06 08:20:00,
2013-01-06 02:25:00,25.7,23.4,29.91,WNW,295,0.0,5.0,91,0.00,,---,0.00,VWS V14.00,2013-01-06 08:25:00,
2013-01-06 02:30:00,25.7,23.4,29.92,North,355,2.0,7.0,91,0.00,,---,0.00,VWS V14.00,2013-01-06 08:30:00,
2013-01-06 02:35:00,25.7,23.4,29.92,WSW,246,4.0,4.0,91,0.00,,---,0.00,VWS V14.00,2013-01-06 08:35:00,
2013-01-06 02:40:00,25.6,23.3,29.92,WSW,257,0.0,6.0,91,0.00,,---,0.00,VWS V14.00,2013-01-06 08:40:00,
2013-01-06 02:45:00,25.6,23.3,29.92,West,259,4.0,6.0,91,0.00,,---,0.00,VWS V14.00,2013-01-06 08:45:00,
2013-01-06 02:50:00,25.5,23.2,29.93,West,267,1.0,7.0,91,0.00,,---,0.00,VWS V14.00,2013-01-06 08:50:00,
2013-01-06 02:55:00,25.5,23.5,29.92,WNW,288,0.0,7.0,92,0.00,,---,0.00,VWS V14.00,2013-01-06 08:55:00,
2013-01-06 03:00:00,25.4,23.4,29.93,West,263,0.0,7.0,92,0.00,,---,0.00,VWS V14.00,2013-01-06 09:00:00,
2013-01-06 03:05:00,25.4,23.4,29.93,West,264,4.0,4.0,92,0.00,,---,0.00,VWS V14.00,2013-01-06 09:05:00,
2013-01-06 03:10:00,25.3,23.3,29.93,West,280,2.0,6.0,92,0.00,,---,0.00,VWS V14.00,2013-01-06 09:10:00,
2013-01-06 03:15:00,25.3,23.3,29.93,WNW,283,4.0,6.0,92,0.00,,---,0.00,VWS V14.00,2013-01-06 09:15:00,
2013-01-06 03:20:00,25.3,23.3,29.93,WSW,255,4.0,12.0,92,0.00,,---,0.00,VWS V14.00,2013-01-06 09:20:00,
2013-01-06 03:25:00,25.3,23.3,29.94,West,281,0.0,12.0,92,0.00,,---,0.00,VWS V14.00,2013-01-06 09:25:00,
2013-01-06 03:30:00,25.3,23.3,29.93,West,281,0.0,12.0,92,0.00,,---,0.00,VWS V14.00,2013-01-06 09:30:00,
2013-01-06 03:35:00,25.3,23.3,29.94,NW,315,0.0,2.0,92,0.00,,---,0.00,VWS V14.00,2013-01-06 09:35:00,
2013-01-06 03:40:00,25.3,23.3,29.94,West,279,0.0,4.0,92,0.00,,---,0.00,VWS V14.00,2013-01-06 09:40:00,
2013-01-06 03:45:00,25.4,23.4,29.94,West,274,3.0,10.0,92,0.00,,---,0.00,VWS V14.00,2013-01-06 09:45:00,
2013-01-06 03:50:00,25.4,23.7,29.94,West,275,1.0,2.0,93,0.00,,---,0.00,VWS V14.00,2013-01-06 09:50:00,
2013-01-06 03:55:00,25.4,23.7,29.94,NW,322,0.0,4.0,93,0.00,,---,0.00,VWS V14.00,2013-01-06 09:55:00,
2013-01-06 04:00:00,25.4,23.7,29.94,WSW,237,3.0,4.0,93,0.00,,---,0.00,VWS V14.00,2013-01-06 10:00:00,
2013-01-06 04:05:00,25.4,23.7,29.94,WSW,248,0.0,4.0,93,0.00,,---,0.00,VWS V14.00,2013-01-06 10:05:00,
2013-01-06 04:10:00,25.4,23.4,29.95,SSW,200,0.0,4.0,92,0.00,,---,0.00,VWS V14.00,2013-01-06 10:10:00,
2013-01-06 04:15:00,25.5,23.8,29.95,SSW,207,0.0,4.0,93,0.00,,---,0.00,VWS V14.00,2013-01-06 10:15:00,
2013-01-06 04:20:00,25.5,23.8,29.95,SSW,207,0.0,2.0,93,0.00,,---,0.00,VWS V14.00,2013-01-06 10:20:00,
2013-01-06 04:25:00,25.5,23.8,29.95,SSW,207,2.0,2.0,93,0.00,,---,0.00,VWS V14.00,2013-01-06 10:25:00,
2013-01-06 04:30:00,25.6,23.9,29.95,WNW,288,0.0,5.0,93,0.00,,---,0.00,VWS V14.00,2013-01-06 10:30:00,
2013-01-06 04:35:00,25.6,23.9,29.95,WNW,288,0.0,2.0,93,0.00,,---,0.00,VWS V14.00,2013-01-06 10:35:00,
2013-01-06 04:40:00,25.6,23.9,29.95,SW,225,0.0,3.0,93,0.00,,---,0.00,VWS V14.00,2013-01-06 10:40:00,
2013-01-06 04:45:00,25.6,23.9,29.95,SW,231,2.0,3.0,93,0.00,,---,0.00,VWS V14.00,2013-01-06 10:45:00,
2013-01-06 04:50:00,25.6,23.9,29.96,SW,223,0.0,0.0,93,0.00,,---,0.00,VWS V14.00,2013-01-06 10:50:00,
2013-01-06 04:55:00,25.6,23.9,29.95,SW,223,0.0,3.0,93,0.00,,---,0.00,VWS V14.00,2013-01-06 10:55:00,
2013-01-06 05:00:00,25.6,23.9,29.96,ENE,71,0.0,3.0,93,0.00,,---,0.00,VWS V14.00,2013-01-06 11:00:00,
2013-01-06 05:05:00,25.6,23.9,29.97,WSW,257,0.0,0.0,93,0.00,,---,0.00,VWS V14.00,2013-01-06 11:05:00,
2013-01-06 05:10:00,25.6,23.9,29.97,WSW,257,0.0,1.0,93,0.00,,---,0.00,VWS V14.00,2013-01-06 11:10:00,
2013-01-06 05:15:00,25.6,23.9,29.97,WSW,257,0.0,1.0,93,0.00,,---,0.00,VWS V14.00,2013-01-06 11:15:00,
2013-01-06 05:20:00,25.6,23.9,29.97,WSW,257,0.0,0.0,93,0.00,,---,0.00,VWS V14.00,2013-01-06 11:20:00,
2013-01-06 05:25:00,25.6,23.9,29.97,WSW,257,0.0,0.0,93,0.00,,---,0.00,VWS V14.00,2013-01-06 11:25:00,
2013-01-06 05:30:00,25.6,23.9,29.98,WSW,257,0.0,0.0,93,0.00,,---,0.00,VWS V14.00,2013-01-06 11:30:00,
2013-01-06 05:35:00,25.6,23.9,29.98,WSW,257,0.0,0.0,93,0.00,,---,0.00,VWS V14.00,2013-01-06 11:35:00,
2013-01-06 05:40:00,25.6,23.9,29.98,WSW,257,0.0,0.0,93,0.00,,---,0.00,VWS V14.00,2013-01-06 11:40:00,
2013-01-06 05:45:00,25.6,23.9,29.99,WSW,257,0.0,1.0,93,0.00,,---,0.00,VWS V14.00,2013-01-06 11:45:00,
2013-01-06 05:50:00,25.7,24.0,29.99,ESE,111,1.0,3.0,93,0.00,,---,0.00,VWS V14.00,2013-01-06 11:50:00,
2013-01-06 05:55:00,25.7,24.0,29.99,ENE,63,0.0,3.0,93,0.00,,---,0.00,VWS V14.00,2013-01-06 11:55:00,
2013-01-06 06:00:00,25.6,23.9,29.99,ENE,63,0.0,3.0,93,0.00,,---,0.00,VWS V14.00,2013-01-06 12:00:00,
2013-01-06 06:05:00,25.7,24.0,30.00,WNW,297,0.0,1.0,93,0.00,,---,0.00,VWS V14.00,2013-01-06 12:05:00,
2013-01-06 06:10:00,25.6,23.9,30.00,WNW,297,0.0,1.0,93,0.00,,---,0.00,VWS V14.00,2013-01-06 12:10:00,
2013-01-06 06:15:00,25.7,24.0,30.00,NW,323,1.0,3.0,93,0.00,,---,0.00,VWS V14.00,2013-01-06 12:15:00,
2013-01-06 06:20:00,25.6,23.9,30.00,NW,311,0.0,0.0,93,0.00,,---,0.00,VWS V14.00,2013-01-06 12:20:00,
2013-01-06 06:25:00,25.6,23.9,30.01,NNE,15,0.0,5.0,93,0.00,,---,0.00,VWS V14.00,2013-01-06 12:25:00,
2013-01-06 06:30:00,25.6,23.9,30.01,NE,34,0.0,5.0,93,0.00,,---,0.00,VWS V14.00,2013-01-06 12:30:00,
2013-01-06 06:35:00,25.6,23.9,30.01,NE,34,0.0,0.0,93,0.00,,---,0.00,VWS V14.00,2013-01-06 12:35:00,
2013-01-06 06:40:00,25.6,23.9,30.01,NW,325,0.0,4.0,93,0.00,,---,0.00,VWS V14.00,2013-01-06 12:40:00,
2013-01-06 06:45:00,25.6,23.9,30.01,NW,323,0.0,4.0,93,0.00,,---,0.00,VWS V14.00,2013-01-06 12:45:00,
2013-01-06 06:50:00,25.5,23.8,30.02,NW,306,0.0,4.0,93,0.00,,---,0.00,VWS V14.00,2013-01-06 12:50:00,
2013-01-06 06:55:00,25.4,23.4,30.02,North,351,1.0,4.0,92,0.00,,---,0.00,VWS V14.00,2013-01-06 12:55:00,
2013-01-06 07:00:00,25.3,23.3,30.03,ENE,72,1.0,4.0,92,0.00,,---,0.00,VWS V14.00,2013-01-06 13:00:00,
2013-01-06 07:05:00,25.2,23.2,30.03,NNE,30,0.0,2.0,92,0.00,,---,0.00,VWS V14.00,2013-01-06 13:05:00,
2013-01-06 07:10:00,25.1,23.1,30.03,NNW,340,0.0,2.0,92,0.00,,---,0.00,VWS V14.00,2013-01-06 13:10:00,
2013-01-06 07:15:00,25.1,23.1,30.03,NE,55,0.0,2.0,92,0.00,,---,0.00,VWS V14.00,2013-01-06 13:15:00,
2013-01-06 07:20:00,25.0,23.0,30.04,NE,55,0.0,1.0,92,0.00,,---,0.00,VWS V14.00,2013-01-06 13:20:00,
2013-01-06 07:25:00,24.9,22.9,30.04,NE,55,0.0,1.0,92,0.00,,---,0.00,VWS V14.00,2013-01-06 13:25:00,
2013-01-06 07:30:00,24.9,22.9,30.04,NE,55,0.0,2.0,92,0.00,,---,0.00,VWS V14.00,2013-01-06 13:30:00,
2013-01-06 07:35:00,24.8,22.8,30.04,NNW,336,0.0,0.0,92,0.00,,---,0.00,VWS V14.00,2013-01-06 13:35:00,
2013-01-06 07:40:00,24.6,22.4,30.04,NNW,339,0.0,2.0,91,0.00,,---,0.00,VWS V14.00,2013-01-06 13:40:00,
2013-01-06 07:45:00,24.4,22.2,30.04,North,355,0.0,2.0,91,0.00,,---,0.00,VWS V14.00,2013-01-06 13:45:00,
2013-01-06 07:50:00,24.3,22.1,30.04,North,355,0.0,0.0,91,0.00,,---,0.00,VWS V14.00,2013-01-06 13:50:00,
2013-01-06 07:55:00,24.1,21.9,30.05,North,355,0.0,0.0,91,0.00,,---,0.00,VWS V14.00,2013-01-06 13:55:00,
2013-01-06 08:00:00,24.0,21.8,30.05,North,360,0.0,0.0,91,0.00,,---,0.00,VWS V14.00,2013-01-06 14:00:00,
2013-01-06 08:05:00,23.8,21.8,30.05,North,360,0.0,0.0,92,0.00,,---,0.00,VWS V14.00,2013-01-06 14:05:00,
2013-01-06 08:10:00,23.9,21.9,30.06,North,360,0.0,0.0,92,0.00,,---,0.00,VWS V14.00,2013-01-06 14:10:00,
2013-01-06 08:15:00,23.9,21.9,30.06,WSW,257,0.0,1.0,92,0.00,,---,0.00,VWS V14.00,2013-01-06 14:15:00,
2013-01-06 08:20:00,23.9,21.9,30.07,WSW,257,0.0,0.0,92,0.00,,---,0.00,VWS V14.00,2013-01-06 14:20:00,
2013-01-06 08:25:00,24.0,22.0,30.07,WSW,257,0.0,0.0,92,0.00,,---,0.00,VWS V14.00,2013-01-06 14:25:00,
2013-01-06 08:30:00,24.0,22.0,30.07,West,272,0.0,2.0,92,0.00,,---,0.00,VWS V14.00,2013-01-06 14:30:00,
2013-01-06 08:35:00,24.1,22.1,30.07,West,272,0.0,0.0,92,0.00,,---,0.00,VWS V14.00,2013-01-06 14:35:00,
2013-01-06 08:40:00,24.2,22.2,30.08,West,272,1.0,1.0,92,0.00,,---,0.00,VWS V14.00,2013-01-06 14:40:00,
2013-01-06 08:45:00,24.2,22.2,30.08,West,272,0.0,2.0,92,0.00,,---,0.00,VWS V14.00,2013-01-06 14:45:00,
2013-01-06 08:50:00,24.3,22.3,30.08,NNW,331,0.0,0.0,92,0.00,,---,0.00,VWS V14.00,2013-01-06 14:50:00,
2013-01-06 08:55:00,24.4,22.4,30.08,SSE,166,0.0,1.0,92,0.00,,---,0.00,VWS V14.00,2013-01-06 14:55:00,
2013-01-06 09:00:00,24.5,22.5,30.08,SSW,196,0.0,2.0,92,0.00,,---,0.00,VWS V14.00,2013-01-06 15:00:00,
2013-01-06 09:05:00,24.7,22.7,30.08,SSW,196,0.0,0.0,92,0.00,,---,0.00,VWS V14.00,2013-01-06 15:05:00,
2013-01-06 09:10:00,24.8,22.8,30.08,WSW,237,2.0,4.0,92,0.00,,---,0.00,VWS V14.00,2013-01-06 15:10:00,
2013-01-06 09:15:00,24.8,22.5,30.08,WSW,240,1.0,4.0,91,0.00,,---,0.00,VWS V14.00,2013-01-06 15:15:00,
2013-01-06 09:20:00,24.9,22.6,30.09,WNW,291,1.0,1.0,91,0.00,,---,0.00,VWS V14.00,2013-01-06 15:20:00,
2013-01-06 09:25:00,24.9,22.6,30.09,WSW,253,0.0,4.0,91,0.00,,---,0.00,VWS V14.00,2013-01-06 15:25:00,
2013-01-06 09:30:00,25.0,22.8,30.09,NNW,329,0.0,4.0,91,0.00,,---,0.00,VWS V14.00,2013-01-06 15:30:00,
2013-01-06 09:35:00,25.1,22.9,30.10,NNW,331,0.0,2.0,91,0.00,,---,0.00,VWS V14.00,2013-01-06 15:35:00,
2013-01-06 09:40:00,25.2,23.0,30.10,WNW,291,0.0,2.0,91,0.00,,---,0.00,VWS V14.00,2013-01-06 15:40:00,
2013-01-06 09:45:00,25.3,23.0,30.10,West,271,0.0,2.0,91,0.00,,---,0.00,VWS V14.00,2013-01-06 15:45:00,
2013-01-06 09:50:00,25.4,22.9,30.10,NW,309,0.0,3.0,90,0.00,,---,0.00,VWS V14.00,2013-01-06 15:50:00,
2013-01-06 09:55:00,25.5,23.0,30.10,North,5,0.0,3.0,90,0.00,,---,0.00,VWS V14.00,2013-01-06 15:55:00,
2013-01-06 10:00:00,25.6,22.8,30.10,NE,51,0.0,6.0,89,0.00,,---,0.00,VWS V14.00,2013-01-06 16:00:00,
2013-01-06 10:05:00,25.5,22.5,30.10,NE,44,0.0,2.0,88,0.00,,---,0.00,VWS V14.00,2013-01-06 16:05:00,
2013-01-06 10:10:00,25.4,22.4,30.10,North,350,0.0,3.0,88,0.00,,---,0.00,VWS V14.00,2013-01-06 16:10:00,
2013-01-06 10:15:00,25.3,22.2,30.10,NW,311,0.0,3.0,88,0.00,,---,0.00,VWS V14.00,2013-01-06 16:15:00,
2013-01-06 10:20:00,25.3,22.2,30.11,NNW,336,0.0,0.0,88,0.00,,---,0.00,VWS V14.00,2013-01-06 16:20:00,
2013-01-06 10:25:00,25.3,22.2,30.11,NW,321,0.0,1.0,88,0.00,,---,0.00,VWS V14.00,2013-01-06 16:25:00,
2013-01-06 10:30:00,25.4,22.4,30.11,NNE,30,0.0,3.0,88,0.00,,---,0.00,VWS V14.00,2013-01-06 16:30:00,
2013-01-06 10:35:00,25.5,22.5,30.11,NNE,28,0.0,3.0,88,0.00,,---,0.00,VWS V14.00,2013-01-06 16:35:00,
2013-01-06 10:40:00,25.7,22.6,30.12,SE,130,0.0,3.0,88,0.00,,---,0.00,VWS V14.00,2013-01-06 16:40:00,
2013-01-06 10:45:00,25.8,22.5,30.12,NNW,342,2.0,5.0,87,0.00,,---,0.00,VWS V14.00,2013-01-06 16:45:00,
2013-01-06 10:50:00,25.6,22.0,30.12,ENE,74,4.0,4.0,86,0.00,,---,0.00,VWS V14.00,2013-01-06 16:50:00,
2013-01-06 10:55:00,25.6,22.0,30.12,NE,55,0.0,4.0,86,0.00,,---,0.00,VWS V14.00,2013-01-06 16:55:00,
2013-01-06 11:00:00,25.6,22.3,30.12,West,259,0.0,5.0,87,0.00,,---,0.00,VWS V14.00,2013-01-06 17:00:00,
2013-01-06 11:05:00,25.7,22.4,30.12,West,259,0.0,2.0,87,0.00,,---,0.00,VWS V14.00,2013-01-06 17:05:00,
2013-01-06 11:10:00,25.7,22.1,30.12,West,259,0.0,2.0,86,0.00,,---,0.00,VWS V14.00,2013-01-06 17:10:00,
2013-01-06 11:15:00,25.6,22.0,30.11,NNE,24,0.0,3.0,86,0.00,,---,0.00,VWS V14.00,2013-01-06 17:15:00,
2013-01-06 11:20:00,25.5,21.9,30.12,NE,37,0.0,5.0,86,0.00,,---,0.00,VWS V14.00,2013-01-06 17:20:00,
2013-01-06 11:25:00,25.4,21.8,30.12,West,281,1.0,5.0,86,0.00,,---,0.00,VWS V14.00,2013-01-06 17:25:00,
2013-01-06 11:30:00,25.4,21.8,30.12,WSW,237,5.0,5.0,86,0.00,,---,0.00,VWS V14.00,2013-01-06 17:30:00,
2013-01-06 11:35:00,25.3,21.4,30.11,West,259,0.0,2.0,85,0.00,,---,0.00,VWS V14.00,2013-01-06 17:35:00,
2013-01-06 11:40:00,25.3,21.4,30.11,SW,236,0.0,2.0,85,0.00,,---,0.00,VWS V14.00,2013-01-06 17:40:00,
2013-01-06 11:45:00,25.3,21.4,30.11,NW,322,2.0,2.0,85,0.00,,---,0.00,VWS V14.00,2013-01-06 17:45:00,
2013-01-06 11:50:00,25.3,21.1,30.11,NNW,340,0.0,3.0,84,0.00,,---,0.00,VWS V14.00,2013-01-06 17:50:00,
2013-01-06 11:55:00,25.3,20.9,30.11,West,265,0.0,4.0,83,0.00,,---,0.00,VWS V14.00,2013-01-06 17:55:00,
2013-01-06 12:00:00,25.3,21.1,30.11,NW,309,0.0,4.0,84,0.00,,---,0.00,VWS V14.00,2013-01-06 18:00:00,
2013-01-06 12:05:00,25.3,21.1,30.10,WSW,241,0.0,4.0,84,0.00,,---,0.00,VWS V14.00,2013-01-06 18:05:00,
2013-01-06 12:10:00,25.3,21.1,30.10,NNW,347,0.0,4.0,84,0.00,,---,0.00,VWS V14.00,2013-01-06 18:10:00,
2013-01-06 12:15:00,25.3,21.1,30.10,North,355,0.0,4.0,84,0.00,,---,0.00,VWS V14.00,2013-01-06 18:15:00,
2013-01-06 12:20:00,25.2,21.0,30.10,WSW,242,0.0,4.0,84,0.00,,---,0.00,VWS V14.00,2013-01-06 18:20:00,
2013-01-06 12:25:00,25.2,21.0,30.11,WSW,241,0.0,5.0,84,0.00,,---,0.00,VWS V14.00,2013-01-06 18:25:00,
2013-01-06 12:30:00,25.1,21.0,30.11,WNW,289,2.0,6.0,84,0.00,,---,0.00,VWS V14.00,2013-01-06 18:30:00,
2013-01-06 12:35:00,24.9,20.8,30.11,WNW,287,0.0,1.0,84,0.00,,---,0.00,VWS V14.00,2013-01-06 18:35:00,
2013-01-06 12:40:00,24.9,21.3,30.11,WNW,286,0.0,2.0,86,0.00,,---,0.00,VWS V14.00,2013-01-06 18:40:00,
2013-01-06 12:45:00,24.8,21.5,30.12,SW,236,3.0,4.0,87,0.00,,---,0.00,VWS V14.00,2013-01-06 18:45:00,
2013-01-06 12:50:00,24.7,21.1,30.12,West,281,3.0,6.0,86,0.00,,---,0.00,VWS V14.00,2013-01-06 18:50:00,
2013-01-06 12:55:00,24.6,21.3,30.12,WSW,244,2.0,7.0,87,0.00,,---,0.00,VWS V14.00,2013-01-06 18:55:00,
2013-01-06 13:00:00,24.5,21.2,30.12,SW,232,1.0,9.0,87,0.00,,---,0.00,VWS V14.00,2013-01-06 19:00:00,
2013-01-06 13:05:00,24.3,21.0,30.12,WSW,254,4.0,7.0,87,0.00,,---,0.00,VWS V14.00,2013-01-06 19:05:00,
2013-01-06 13:10:00,24.3,21.3,30.13,WSW,238,1.0,7.0,88,0.00,,---,0.00,VWS V14.00,2013-01-06 19:10:00,
2013-01-06 13:15:00,24.2,21.2,30.12,SSW,207,1.0,7.0,88,0.00,,---,0.00,VWS V14.00,2013-01-06 19:15:00,
2013-01-06 13:20:00,24.2,21.2,30.12,WSW,238,2.0,4.0,88,0.00,,---,0.00,VWS V14.00,2013-01-06 19:20:00,
2013-01-06 13:25:00,24.1,21.1,30.12,WSW,248,0.0,5.0,88,0.00,,---,0.00,VWS V14.00,2013-01-06 19:25:00,
2013-01-06 13:30:00,24.1,21.1,30.12,WSW,248,0.0,5.0,88,0.00,,---,0.00,VWS V14.00,2013-01-06 19:30:00,
2013-01-06 13:35:00,24.1,21.1,30.13,West,261,2.0,2.0,88,0.00,,---,0.00,VWS V14.00,2013-01-06 19:35:00,
2013-01-06 13:40:00,24.0,21.0,30.13,West,269,0.0,3.0,88,0.00,,---,0.00,VWS V14.00,2013-01-06 19:40:00,
2013-01-06 13:45:00,24.0,20.7,30.13,West,274,0.0,5.0,87,0.00,,---,0.00,VWS V14.00,2013-01-06 19:45:00,
2013-01-06 13:50:00,24.0,20.7,30.14,WSW,242,4.0,4.0,87,0.00,,---,0.00,VWS V14.00,2013-01-06 19:50:00,
2013-01-06 13:56:00,23.9,20.3,30.14,West,269,0.0,6.0,86,0.00,,---,0.00,VWS V14.00,2013-01-06 19:56:00,
2013-01-06 14:01:00,23.9,20.1,30.14,WSW,252,5.0,6.0,85,0.00,,---,0.00,VWS V14.00,2013-01-06 20:01:00,
2013-01-06 14:06:00,23.8,20.0,30.14,SW,228,0.0,5.0,85,0.00,,---,0.00,VWS V14.00,2013-01-06 20:06:00,
2013-01-06 14:11:00,23.8,20.0,30.15,West,277,0.0,5.0,85,0.00,,---,0.00,VWS V14.00,2013-01-06 20:11:00,
2013-01-06 14:13:00,23.8,20.0,30.15,WSW,256,0.0,5.0,85,0.00,,---,0.00,VWS V14.00,2013-01-06 20:13:00,
2013-01-06 14:18:00,23.8,20.2,30.14,WSW,256,0.0,5.0,86,0.00,,---,0.00,VWS V14.00,2013-01-06 20:18:00,
2013-01-06 14:23:00,23.8,19.7,30.14,SW,214,0.0,5.0,84,0.00,,---,0.00,VWS V14.00,2013-01-06 20:23:00,
2013-01-06 14:28:00,23.7,19.6,30.15,WSW,244,2.0,5.0,84,0.00,,---,0.00,VWS V14.00,2013-01-06 20:28:00,
2013-01-06 14:33:00,23.6,19.2,30.15,WSW,258,0.0,8.0,83,0.00,,---,0.00,VWS V14.00,2013-01-06 20:33:00,
2013-01-06 14:38:00,23.6,19.2,30.15,SSW,206,0.0,5.0,83,0.00,,---,0.00,VWS V14.00,2013-01-06 20:38:00,
2013-01-06 14:43:00,23.5,19.1,30.16,West,274,2.0,5.0,83,0.00,,---,0.00,VWS V14.00,2013-01-06 20:43:00,
2013-01-06 14:48:00,23.5,19.4,30.16,SW,224,3.0,5.0,84,0.00,,---,0.00,VWS V14.00,2013-01-06 20:48:00,
2013-01-06 14:53:00,23.5,19.1,30.16,WNW,284,0.0,5.0,83,0.00,,---,0.00,VWS V14.00,2013-01-06 20:53:00,
2013-01-06 14:58:00,23.4,19.0,30.16,WSW,250,4.0,5.0,83,0.00,,---,0.00,VWS V14.00,2013-01-06 20:58:00,
2013-01-06 15:01:00,23.4,19.0,30.16,West,276,1.0,5.0,83,0.00,,---,0.00,VWS V14.00,2013-01-06 21:01:00,
2013-01-06 15:06:00,23.3,18.6,30.16,ENE,78,0.0,3.0,82,0.00,,---,0.00,VWS V14.00,2013-01-06 21:06:00,
2013-01-06 15:11:00,23.3,18.6,30.17,ENE,77,0.0,3.0,82,0.00,,---,0.00,VWS V14.00,2013-01-06 21:11:00,
2013-01-06 15:16:00,23.3,18.9,30.17,ENE,77,0.0,3.0,83,0.00,,---,0.00,VWS V14.00,2013-01-06 21:16:00,
2013-01-06 15:21:00,23.3,18.9,30.17,WSW,237,0.0,3.0,83,0.00,,---,0.00,VWS V14.00,2013-01-06 21:21:00,
2013-01-06 15:26:00,23.2,18.8,30.17,WSW,257,0.0,3.0,83,0.00,,---,0.00,VWS V14.00,2013-01-06 21:26:00,
2013-01-06 15:31:00,23.2,18.8,30.17,WSW,257,0.0,3.0,83,0.00,,---,0.00,VWS V14.00,2013-01-06 21:31:00,
2013-01-06 15:36:00,23.1,18.4,30.18,SW,235,1.0,3.0,82,0.00,,---,0.00,VWS V14.00,2013-01-06 21:36:00,
2013-01-06 15:41:00,23.1,18.7,30.18,SW,235,1.0,3.0,83,0.00,,---,0.00,VWS V14.00,2013-01-06 21:41:00,
2013-01-06 15:46:00,23.0,18.3,30.18,WSW,255,0.0,4.0,82,0.00,,---,0.00,VWS V14.00,2013-01-06 21:46:00,
2013-01-06 15:51:00,23.0,18.3,30.19,SSW,192,0.0,3.0,82,0.00,,---,0.00,VWS V14.00,2013-01-06 21:51:00,
2013-01-06 15:56:00,22.9,18.2,30.19,WSW,247,1.0,3.0,82,0.00,,---,0.00,VWS V14.00,2013-01-06 21:56:00,
2013-01-06 16:01:00,22.9,18.0,30.19,West,259,0.0,4.0,81,0.00,,---,0.00,VWS V14.00,2013-01-06 22:01:00,
2013-01-06 16:06:00,23.0,18.3,30.19,SW,236,0.0,1.0,82,0.00,,---,0.00,VWS V14.00,2013-01-06 22:06:00,
2013-01-06 16:11:00,23.0,18.0,30.19,SW,236,0.0,2.0,81,0.00,,---,0.00,VWS V14.00,2013-01-06 22:11:00,
2013-01-06 16:16:00,22.9,18.0,30.19,West,263,0.0,2.0,81,0.00,,---,0.00,VWS V14.00,2013-01-06 22:16:00,
2013-01-06 16:21:00,22.7,17.5,30.18,West,263,0.0,0.0,80,0.00,,---,0.00,VWS V14.00,2013-01-06 22:21:00,
2013-01-06 16:26:00,22.5,17.6,30.18,West,263,0.0,1.0,81,0.00,,---,0.00,VWS V14.00,2013-01-06 22:26:00,
2013-01-06 16:31:00,22.4,17.5,30.19,West,263,0.0,1.0,81,0.00,,---,0.00,VWS V14.00,2013-01-06 22:31:00,
2013-01-06 16:36:00,22.2,17.5,30.19,West,263,0.0,0.0,82,0.00,,---,0.00,VWS V14.00,2013-01-06 22:36:00,
2013-01-06 16:41:00,21.8,17.2,30.19,West,263,0.0,0.0,82,0.00,,---,0.00,VWS V14.00,2013-01-06 22:41:00,
2013-01-06 16:46:00,21.5,17.1,30.19,West,263,0.0,0.0,83,0.00,,---,0.00,VWS V14.00,2013-01-06 22:46:00,
2013-01-06 16:51:00,21.0,16.7,30.18,West,263,0.0,0.0,83,0.00,,---,0.00,VWS V14.00,2013-01-06 22:51:00,
2013-01-06 16:56:00,20.6,16.3,30.18,West,263,0.0,0.0,83,0.00,,---,0.00,VWS V14.00,2013-01-06 22:56:00,
2013-01-06 17:01:00,20.0,15.9,30.17,West,263,0.0,0.0,84,0.00,,---,0.00,VWS V14.00,2013-01-06 23:01:00,
2013-01-06 17:06:00,19.5,15.7,30.17,West,263,0.0,0.0,85,0.00,,---,0.00,VWS V14.00,2013-01-06 23:06:00,
2013-01-06 17:11:00,19.1,15.6,30.17,West,263,0.0,0.0,86,0.00,,---,0.00,VWS V14.00,2013-01-06 23:11:00,
2013-01-06 17:16:00,18.6,15.1,30.17,West,263,0.0,0.0,86,0.00,,---,0.00,VWS V14.00,2013-01-06 23:16:00,
2013-01-06 17:21:00,18.3,14.8,30.17,West,263,0.0,0.0,86,0.00,,---,0.00,VWS V14.00,2013-01-06 23:21:00,
2013-01-06 17:26:00,17.9,14.4,30.17,West,263,0.0,0.0,86,0.00,,---,0.00,VWS V14.00,2013-01-06 23:26:00,
2013-01-06 17:31:00,17.4,14.2,30.17,West,263,0.0,0.0,87,0.00,,---,0.00,VWS V14.00,2013-01-06 23:31:00,
2013-01-06 17:36:00,17.0,13.8,30.16,West,263,0.0,0.0,87,0.00,,---,0.00,VWS V14.00,2013-01-06 23:36:00,
2013-01-06 17:41:00,16.6,13.4,30.17,West,263,0.0,0.0,87,0.00,,---,0.00,VWS V14.00,2013-01-06 23:41:00,
2013-01-06 17:46:00,16.3,13.1,30.17,West,263,0.0,0.0,87,0.00,,---,0.00,VWS V14.00,2013-01-06 23:46:00,
2013-01-06 17:51:00,15.9,12.7,30.17,West,263,0.0,0.0,87,0.00,,---,0.00,VWS V14.00,2013-01-06 23:51:00,
2013-01-06 17:56:00,15.5,12.6,30.17,West,263,0.0,0.0,88,0.00,,---,0.00,VWS V14.00,2013-01-06 23:56:00,
2013-01-06 18:01:00,15.2,12.3,30.17,West,263,0.0,0.0,88,0.00,,---,0.00,VWS V14.00,2013-01-07 00:01:00,
2013-01-06 18:06:00,14.9,12.0,30.17,West,263,0.0,0.0,88,0.00,,---,0.00,VWS V14.00,2013-01-07 00:06:00,
2013-01-06 18:11:00,14.6,11.7,30.17,West,263,0.0,0.0,88,0.00,,---,0.00,VWS V14.00,2013-01-07 00:11:00,
2013-01-06 18:16:00,14.3,11.7,30.17,West,263,0.0,0.0,89,0.00,,---,0.00,VWS V14.00,2013-01-07 00:16:00,
2013-01-06 18:21:00,14.3,11.7,30.17,West,263,0.0,0.0,89,0.00,,---,0.00,VWS V14.00,2013-01-07 00:21:00,
2013-01-06 18:26:00,13.8,11.2,30.17,West,263,0.0,0.0,89,0.00,,---,0.00,VWS V14.00,2013-01-07 00:26:00,
2013-01-06 18:31:00,13.6,11.2,30.18,West,263,0.0,0.0,90,0.00,,---,0.00,VWS V14.00,2013-01-07 00:31:00,
2013-01-06 18:36:00,13.4,11.0,30.18,West,263,0.0,0.0,90,0.00,,---,0.00,VWS V14.00,2013-01-07 00:36:00,
2013-01-06 18:41:00,13.2,10.8,30.17,West,263,0.0,0.0,90,0.00,,---,0.00,VWS V14.00,2013-01-07 00:41:00,
2013-01-06 18:46:00,13.0,10.6,30.17,West,263,0.0,0.0,90,0.00,,---,0.00,VWS V14.00,2013-01-07 00:46:00,
2013-01-06 18:51:00,12.8,10.4,30.17,West,263,0.0,0.0,90,0.00,,---,0.00,VWS V14.00,2013-01-07 00:51:00,
2013-01-06 18:56:00,12.5,10.1,30.16,West,263,0.0,0.0,90,0.00,,---,0.00,VWS V14.00,2013-01-07 00:56:00,
2013-01-06 19:01:00,12.4,10.0,30.16,West,263,0.0,0.0,90,0.00,,---,0.00,VWS V14.00,2013-01-07 01:01:00,
2013-01-06 19:06:00,12.2,9.8,30.17,West,263,0.0,0.0,90,0.00,,---,0.00,VWS V14.00,2013-01-07 01:06:00,
2013-01-06 19:11:00,12.2,9.8,30.17,West,263,0.0,0.0,90,0.00,,---,0.00,VWS V14.00,2013-01-07 01:11:00,
2013-01-06 19:16:00,12.2,9.8,30.17,West,263,0.0,0.0,90,0.00,,---,0.00,VWS V14.00,2013-01-07 01:16:00,
2013-01-06 19:21:00,12.2,10.1,30.17,West,263,0.0,0.0,91,0.00,,---,0.00,VWS V14.00,2013-01-07 01:21:00,
2013-01-06 19:26:00,12.2,10.1,30.17,West,263,0.0,0.0,91,0.00,,---,0.00,VWS V14.00,2013-01-07 01:26:00,
2013-01-06 19:31:00,12.3,10.2,30.17,West,263,0.0,0.0,91,0.00,,---,0.00,VWS V14.00,2013-01-07 01:31:00,
2013-01-06 19:36:00,12.2,10.1,30.17,West,263,0.0,0.0,91,0.00,,---,0.00,VWS V14.00,2013-01-07 01:36:00,
2013-01-06 19:41:00,12.2,10.1,30.17,West,263,0.0,0.0,91,0.00,,---,0.00,VWS V14.00,2013-01-07 01:41:00,
2013-01-06 19:46:00,12.1,9.7,30.17,West,263,0.0,0.0,90,0.00,,---,0.00,VWS V14.00,2013-01-07 01:46:00,
2013-01-06 19:51:00,11.9,9.5,30.17,West,263,0.0,0.0,90,0.00,,---,0.00,VWS V14.00,2013-01-07 01:51:00,
2013-01-06 19:56:00,12.1,10.0,30.17,SSE,147,0.0,2.0,91,0.00,,---,0.00,VWS V14.00,2013-01-07 01:56:00,
2013-01-06 20:01:00,12.5,10.6,30.16,SSE,147,0.0,2.0,92,0.00,,---,0.00,VWS V14.00,2013-01-07 02:01:00,
2013-01-06 20:06:00,12.7,10.8,30.16,SSE,147,0.0,0.0,92,0.00,,---,0.00,VWS V14.00,2013-01-07 02:06:00,
2013-01-06 20:11:00,12.6,10.5,30.16,SSE,147,0.0,0.0,91,0.00,,---,0.00,VWS V14.00,2013-01-07 02:11:00,
2013-01-06 20:16:00,12.6,10.5,30.16,SSE,147,0.0,0.0,91,0.00,,---,0.00,VWS V14.00,2013-01-07 02:16:00,
2013-01-06 20:21:00,12.5,10.4,30.16,SSE,147,0.0,0.0,91,0.00,,---,0.00,VWS V14.00,2013-01-07 02:21:00,
2013-01-06 20:26:00,12.3,9.9,30.16,SSE,147,0.0,0.0,90,0.00,,---,0.00,VWS V14.00,2013-01-07 02:26:00,
2013-01-06 20:31:00,12.3,9.9,30.16,SSE,147,0.0,0.0,90,0.00,,---,0.00,VWS V14.00,2013-01-07 02:31:00,
2013-01-06 20:36:00,12.2,9.8,30.16,SSE,147,0.0,0.0,90,0.00,,---,0.00,VWS V14.00,2013-01-07 02:36:00,
2013-01-06 20:41:00,12.2,9.8,30.16,SSE,147,0.0,0.0,90,0.00,,---,0.00,VWS V14.00,2013-01-07 02:41:00,
2013-01-06 20:46:00,12.1,10.0,30.17,SSE,147,0.0,0.0,91,0.00,,---,0.00,VWS V14.00,2013-01-07 02:46:00,
2013-01-06 20:51:00,12.5,10.6,30.16,SSE,147,0.0,0.0,92,0.00,,---,0.00,VWS V14.00,2013-01-07 02:51:00,
2013-01-06 20:56:00,12.7,10.8,30.17,SSE,147,0.0,0.0,92,0.00,,---,0.00,VWS V14.00,2013-01-07 02:56:00,
2013-01-06 21:01:00,12.9,11.0,30.16,SSE,147,0.0,0.0,92,0.00,,---,0.00,VWS V14.00,2013-01-07 03:01:00,
2013-01-06 21:06:00,12.8,10.7,30.16,SSE,147,0.0,0.0,91,0.00,,---,0.00,VWS V14.00,2013-01-07 03:06:00,
2013-01-06 21:11:00,12.8,10.7,30.16,SSE,147,0.0,0.0,91,0.00,,---,0.00,VWS V14.00,2013-01-07 03:11:00,
2013-01-06 21:16:00,12.8,10.7,30.16,SSE,147,0.0,0.0,91,0.00,,---,0.00,VWS V14.00,2013-01-07 03:16:00,
2013-01-06 21:21:00,12.8,10.7,30.16,SSE,147,0.0,0.0,91,0.00,,---,0.00,VWS V14.00,2013-01-07 03:21:00,
2013-01-06 21:26:00,13.0,11.1,30.16,SSE,147,0.0,0.0,92,0.00,,---,0.00,VWS V14.00,2013-01-07 03:26:00,
2013-01-06 21:31:00,13.2,11.3,30.16,SSE,147,0.0,0.0,92,0.00,,---,0.00,VWS V14.00,2013-01-07 03:31:00,
2013-01-06 21:36:00,13.5,11.6,30.16,SSE,147,0.0,1.0,92,0.00,,---,0.00,VWS V14.00,2013-01-07 03:36:00,
2013-01-06 21:41:00,13.7,11.8,30.16,SE,146,0.0,1.0,92,0.00,,---,0.00,VWS V14.00,2013-01-07 03:41:00,
2013-01-06 21:46:00,13.8,11.9,30.16,SE,146,0.0,1.0,92,0.00,,---,0.00,VWS V14.00,2013-01-07 03:46:00,
2013-01-06 21:51:00,13.8,11.7,30.16,SE,146,0.0,0.0,91,0.00,,---,0.00,VWS V14.00,2013-01-07 03:51:00,
2013-01-06 21:56:00,13.9,11.8,30.16,SE,146,1.0,1.0,91,0.00,,---,0.00,VWS V14.00,2013-01-07 03:56:00,
2013-01-06 22:01:00,13.9,11.8,30.16,SE,146,0.0,2.0,91,0.00,,---,0.00,VWS V14.00,2013-01-07 04:01:00,
2013-01-06 22:06:00,13.9,11.5,30.16,SE,146,0.0,0.0,90,0.00,,---,0.00,VWS V14.00,2013-01-07 04:06:00,
2013-01-06 22:11:00,13.9,11.5,30.16,SSE,155,0.0,2.0,90,0.00,,---,0.00,VWS V14.00,2013-01-07 04:11:00,
2013-01-06 22:16:00,13.8,11.4,30.16,SSE,155,0.0,2.0,90,0.00,,---,0.00,VWS V14.00,2013-01-07 04:16:00,
2013-01-06 22:21:00,13.8,11.4,30.16,SSE,155,0.0,2.0,90,0.00,,---,0.00,VWS V14.00,2013-01-07 04:21:00,
2013-01-06 22:26:00,13.7,11.3,30.16,SSE,155,0.0,2.0,90,0.00,,---,0.00,VWS V14.00,2013-01-07 04:26:00,
2013-01-06 22:31:00,13.7,11.3,30.16,SSE,155,0.0,2.0,90,0.00,,---,0.00,VWS V14.00,2013-01-07 04:31:00,
2013-01-06 22:36:00,13.6,11.2,30.16,SSE,155,0.0,0.0,90,0.00,,---,0.00,VWS V14.00,2013-01-07 04:36:00,
2013-01-06 22:41:00,13.6,11.2,30.15,SSE,155,0.0,0.0,90,0.00,,---,0.00,VWS V14.00,2013-01-07 04:41:00,
2013-01-06 22:46:00,13.6,11.2,30.15,SSE,155,0.0,1.0,90,0.00,,---,0.00,VWS V14.00,2013-01-07 04:46:00,
2013-01-06 22:51:00,13.5,11.1,30.15,SSE,155,0.0,0.0,90,0.00,,---,0.00,VWS V14.00,2013-01-07 04:51:00,
2013-01-06 22:56:00,13.4,11.0,30.15,SSE,155,0.0,0.0,90,0.00,,---,0.00,VWS V14.00,2013-01-07 04:56:00,
2013-01-06 23:00:00,13.2,10.8,30.15,SSE,155,0.0,0.0,90,0.00,,---,0.00,VWS V14.00,2013-01-07 05:00:00,
2013-01-06 23:05:00,13.1,10.7,30.15,SSE,155,0.0,0.0,90,0.00,,---,0.00,VWS V14.00,2013-01-07 05:05:00,
2013-01-06 23:10:00,13.0,10.6,30.15,SSE,155,0.0,0.0,90,0.00,,---,0.00,VWS V14.00,2013-01-07 05:10:00,
2013-01-06 23:15:00,12.8,10.4,30.15,SSE,156,0.0,3.0,90,0.00,,---,0.00,VWS V14.00,2013-01-07 05:15:00,
2013-01-06 23:20:00,12.6,10.0,30.14,SSE,156,0.0,0.0,89,0.00,,---,0.00,VWS V14.00,2013-01-07 05:20:00,
2013-01-06 23:25:00,12.5,10.1,30.14,SSE,156,0.0,2.0,90,0.00,,---,0.00,VWS V14.00,2013-01-07 05:25:00,
2013-01-06 23:30:00,12.5,10.1,30.14,SSE,156,0.0,2.0,90,0.00,,---,0.00,VWS V14.00,2013-01-07 05:30:00,
2013-01-06 23:35:00,12.3,9.9,30.13,SSE,156,0.0,0.0,90,0.00,,---,0.00,VWS V14.00,2013-01-07 05:35:00,
2013-01-06 23:40:00,12.3,9.9,30.14,SSE,156,0.0,0.0,90,0.00,,---,0.00,VWS V14.00,2013-01-07 05:40:00,
2013-01-06 23:45:00,12.3,9.9,30.14,SSE,156,0.0,0.0,90,0.00,,---,0.00,VWS V14.00,2013-01-07 05:45:00,
2013-01-06 23:50:00,12.7,10.6,30.14,SSE,163,1.0,2.0,91,0.00,,---,0.00,VWS V14.00,2013-01-07 05:50:00,
2013-01-06 23:55:00,12.9,10.8,30.13,SE,146,0.0,4.0,91,0.00,,---,0.00,VWS V14.00,2013-01-07 05:55:00,